OAL824 LGAV-EDDH

Flight info

Callsign OAL824
Flight time N/A
Altitude 20000
Route KOR UL53 ELVAS DCT DIMIS DCT ADDER DCT ELBAK DCT UNDER DCT PETAK DCT GUBOK DCT VEBAL DCT STEIN DCT LANUX DCT LALUK DCT SOGMA M748 RARUP RARUP6A
Aircraft YS11/M-SDFHY/C

Departure

Time N/A
Airport Athens Eleftherios Venizelos International Airport (LGAV)

Arrival

Time 2026-04-26 12:16
Airport Hamburg Helmut Schmidt Airport (EDDH)
Time Latitude Longitude Altitude Speed Heading
2026-04-26 11:53 53.44112 10.91339 20301 ft 239 kts 324°
2026-04-26 11:53 53.45486 10.89744 20322 ft 239 kts 323°
2026-04-26 11:54 53.48210 10.86543 20311 ft 239 kts 322°
2026-04-26 11:54 53.49572 10.84936 20316 ft 240 kts 322°
2026-04-26 11:54 53.50941 10.83334 20334 ft 240 kts 323°
2026-04-26 11:54 53.52305 10.81729 20331 ft 239 kts 322°
2026-04-26 11:55 53.53662 10.80124 20327 ft 239 kts 322°
2026-04-26 11:55 53.55023 10.78519 20328 ft 238 kts 322°
2026-04-26 11:55 53.56383 10.76919 20330 ft 238 kts 322°
2026-04-26 11:55 53.57742 10.75317 20331 ft 238 kts 322°
2026-04-26 11:56 53.59096 10.73714 20333 ft 238 kts 322°
2026-04-26 11:56 53.60456 10.72106 20336 ft 238 kts 322°
2026-04-26 11:56 53.61814 10.70502 20336 ft 238 kts 322°
2026-04-26 11:56 53.62999 10.68591 20338 ft 236 kts 300°
2026-04-26 11:57 53.63400 10.65926 20357 ft 240 kts 271°
2026-04-26 11:57 53.63169 10.63153 20359 ft 244 kts 263°
2026-04-26 11:57 53.62807 10.60354 20345 ft 245 kts 261°
2026-04-26 11:57 53.62294 10.57609 20339 ft 247 kts 255°
2026-04-26 11:58 53.61704 10.54881 20334 ft 247 kts 257°
2026-04-26 11:58 53.61217 10.52118 20327 ft 246 kts 259°
2026-04-26 11:58 53.60719 10.49331 20071 ft 250 kts 257°
2026-04-26 11:58 53.60154 10.46554 19803 ft 251 kts 256°
2026-04-26 11:59 53.59612 10.43764 19542 ft 251 kts 258°
2026-04-26 11:59 53.59103 10.40956 19287 ft 251 kts 257°
2026-04-26 11:59 53.58569 10.38152 19021 ft 251 kts 256°
2026-04-26 11:59 53.58013 10.35362 18766 ft 251 kts 256°
2026-04-26 12:00 53.57484 10.32596 18503 ft 251 kts 256°
2026-04-26 12:00 53.56958 10.29792 18199 ft 252 kts 256°
2026-04-26 12:00 53.56414 10.26989 17905 ft 252 kts 256°
2026-04-26 12:00 53.55863 10.24182 17620 ft 253 kts 256°
2026-04-26 12:01 53.55322 10.21361 17319 ft 252 kts 256°
2026-04-26 12:01 53.54785 10.18557 17035 ft 252 kts 256°
2026-04-26 12:01 53.54238 10.15761 16755 ft 252 kts 255°
2026-04-26 12:01 53.53691 10.12958 16471 ft 252 kts 256°
2026-04-26 12:02 53.53153 10.10177 16152 ft 249 kts 256°
2026-04-26 12:02 53.52798 10.08350 15939 ft 248 kts 256°
2026-04-26 12:02 53.52090 10.04730 15511 ft 238 kts 256°
2026-04-26 12:02 53.51575 10.02102 15210 ft 237 kts 256°
2026-04-26 12:03 53.51065 9.99470 14910 ft 236 kts 256°
2026-04-26 12:03 53.50503 9.96876 14546 ft 237 kts 251°
2026-04-26 12:03 53.49766 9.94447 14110 ft 231 kts 245°
2026-04-26 12:03 53.48939 9.92160 13638 ft 228 kts 242°
2026-04-26 12:04 53.47961 9.90103 13184 ft 230 kts 232°
2026-04-26 12:04 53.46871 9.88144 12728 ft 229 kts 233°
2026-04-26 12:04 53.45868 9.86071 12282 ft 228 kts 237°
2026-04-26 12:04 53.44890 9.83986 11836 ft 228 kts 235°
2026-04-26 12:05 53.43850 9.81980 11395 ft 227 kts 233°
2026-04-26 12:05 53.42823 9.79977 10937 ft 225 kts 236°
2026-04-26 12:05 53.41856 9.77973 10418 ft 218 kts 236°
2026-04-26 12:05 53.40894 9.76020 9871 ft 215 kts 234°
2026-04-26 12:06 53.39919 9.74106 9310 ft 216 kts 233°
2026-04-26 12:06 53.38946 9.72181 8760 ft 217 kts 234°
2026-04-26 12:06 53.37985 9.70230 8197 ft 217 kts 234°
2026-04-26 12:06 53.37019 9.68297 7673 ft 216 kts 232°
2026-04-26 12:07 53.36177 9.66242 7123 ft 213 kts 252°
2026-04-26 12:07 53.36124 9.63858 6593 ft 205 kts 289°
2026-04-26 12:07 53.36940 9.62005 6038 ft 200 kts 328°
2026-04-26 12:07 53.38259 9.61336 5508 ft 200 kts 353°
2026-04-26 12:08 53.39618 9.61077 5108 ft 195 kts 353°
2026-04-26 12:08 53.40935 9.60725 4849 ft 189 kts 352°
2026-04-26 12:08 53.42219 9.60664 4690 ft 182 kts
2026-04-26 12:08 53.43414 9.61211 4516 ft 176 kts 26°
2026-04-26 12:09 53.44444 9.62254 4385 ft 171 kts 36°
2026-04-26 12:09 53.45365 9.63499 4253 ft 170 kts 41°
2026-04-26 12:09 53.46231 9.64885 4137 ft 170 kts 49°
2026-04-26 12:09 53.46954 9.66436 3993 ft 171 kts 54°
2026-04-26 12:10 53.47673 9.68033 3852 ft 172 kts 50°
2026-04-26 12:10 53.48475 9.69529 3690 ft 172 kts 47°
2026-04-26 12:10 53.49281 9.71028 3539 ft 173 kts 50°
2026-04-26 12:10 53.50035 9.72599 3395 ft 173 kts 52°
2026-04-26 12:11 53.50785 9.74182 3254 ft 173 kts 50°
2026-04-26 12:11 53.51566 9.75708 3108 ft 172 kts 49°
2026-04-26 12:11 53.52361 9.77224 2930 ft 174 kts 49°
2026-04-26 12:11 53.52888 9.78247 2802 ft 175 kts 49°
2026-04-26 12:12 53.53676 9.79818 2609 ft 176 kts 50°
2026-04-26 12:12 53.54440 9.81382 2415 ft 166 kts 51°
2026-04-26 12:12 53.55319 9.83195 2119 ft 134 kts 50°
2026-04-26 12:12 53.55706 9.83987 1954 ft 131 kts 50°
2026-04-26 12:13 53.56326 9.85259 1804 ft 146 kts 51°
2026-04-26 12:13 53.57168 9.87013 1580 ft 148 kts 51°
2026-04-26 12:13 53.57603 9.87931 1489 ft 148 kts 51°
2026-04-26 12:13 53.58258 9.89266 1356 ft 148 kts 50°
2026-04-26 12:14 53.58938 9.90577 1118 ft 152 kts 50°
2026-04-26 12:14 53.59563 9.91850 837 ft 126 kts 50°
2026-04-26 12:14 53.60116 9.92957 612 ft 125 kts 49°
2026-04-26 12:14 53.60678 9.94081 482 ft 123 kts 49°
2026-04-26 12:15 53.61222 9.95186 354 ft 123 kts 48°
2026-04-26 12:15 53.61778 9.96284 171 ft 122 kts 49°
2026-04-26 12:15 53.62322 9.97373 51 ft 117 kts 49°
2026-04-26 12:15 53.62739 9.98218 43 ft 71 kts 49°
2026-04-26 12:16 53.63011 9.98763 45 ft 53 kts 50°
2026-04-26 12:16 53.63223 9.99195 47 ft 43 kts 50°
2026-04-26 12:16 53.63291 9.99506 47 ft 24 kts 98°
2026-04-26 12:16 53.63282 9.99602 48 ft 0 kts 98°
2026-04-26 12:17 53.63281 9.99614 48 ft 5 kts 98°
2026-04-26 12:18 53.63274 9.99686 48 ft 9 kts 109°
2026-04-26 12:18 53.63218 9.99764 48 ft 13 kts 152°
2026-04-26 12:18 53.63136 9.99836 48 ft 12 kts 152°
2026-04-26 12:18 53.63057 9.99905 48 ft 13 kts 153°
2026-04-26 12:19 53.62974 9.99978 48 ft 14 kts 153°
2026-04-26 12:19 53.62960 10.00073 47 ft 7 kts 25°
2026-04-26 12:19 53.62989 10.00098 46 ft 3 kts 31°
2026-04-26 12:19 53.63013 10.00122 45 ft 4 kts 31°
2026-04-26 12:20 53.63031 10.00120 48 ft 3 kts 313°
2026-04-26 12:20 53.63036 10.00089 47 ft 2 kts 279°
2026-04-26 12:20 53.63039 10.00063 48 ft 2 kts 280°
2026-04-26 12:20 53.63041 10.00040 46 ft 2 kts 279°
2026-04-26 12:21 53.63042 10.00038 47 ft 0 kts 279°